Wind_Speed
12 11 9 9 8 8 8 7 7 8 8 6 5 4 4 4 4 5 5 5 6 7 7 7 6 6 6 6 6 5 5 5 6 6 6 6 6 6 6 7 6 7 8 9
13 12 11 12 11 10 9 9 9 9 10 8 7 7 6 6 7 7 7 6 7 8 8 8 8 7 7 7 7 6 6 7 7 8 7 7 7 7 8 8 8 9 9 10
15 14 15 14 13 12 11 11 10 11 11 9 8 8 8 8 8 8 8 8 8 9 9 9 9 9 8 7 7 7 7 8 8 8 9 9 9 8 8 9 9 9 10 11
17 16 17 16 15 13 12 13 13 12 12 11 10 9 9 10 10 10 10 10 9 10 10 11 10 10 9 8 8 8 9 9 9 9 9 9 9 9 9 9 10 10 11 11
19 18 18 17 16 16 15 15 14 14 14 13 12 12 10 11 11 11 11 11 11 12 12 12 12 12 10 9 10 10 9 9 9 9 9 10 10 10 10 10 11 11 12 13
21 20 20 18 18 18 17 16 16 16 15 15 14 14 12 12 12 12 12 12 12 13 14 13 14 14 12 11 11 11 11 11 10 10 10 11 11 11 12 12 13 13 13 14
21 22 21 20 19 19 18 17 16 16 16 16 16 16 14 14 14 14 14 13 14 14 15 14 13 14 13 12 13 13 12 12 12 11 12 12 13 13 14 15 15 15 15 16
21 22 22 21 21 19 19 18 18 17 17 17 17 17 16 16 15 15 15 14 14 15 15 15 14 14 13 14 14 14 14 14 14 13 14 14 15 15 16 17 17 17 17 17
21 21 22 22 22 21 21 19 19 18 18 18 18 18 17 17 16 15 15 16 15 15 15 15 15 16 15 15 15 16 15 15 15 15 16 16 17 17 17 18 19 18 18 19
22 22 22 22 23 23 23 21 20 20 20 20 19 19 18 18 17 16 16 16 16 15 15 15 16 16 16 16 16 15 16 16 16 17 17 18 18 19 19 18 18 18 18 19
22 22 22 22 22 22 23 23 22 22 21 20 19 19 20 20 19 18 18 17 17 16 16 16 16 17 18 17 17 17 17 17 17 18 18 18 19 20 19 18 19 19 18 19
23 23 23 23 23 24 24 23 23 23 22 21 20 20 21 21 20 20 19 18 18 18 18 18 17 18 19 19 18 18 18 19 19 19 19 20 20 21 20 20 20 20 19 20
24 25 23 22 23 23 24 23 23 22 22 21 20 20 22 21 21 21 20 20 19 19 19 19 19 19 18 18 18 19 19 20 20 20 20 21 22 22 22 21 21 20 20 21
24 25 25 23 23 23 24 23 23 23 22 22 22 21 22 22 21 21 21 21 20 20 20 20 19 19 19 19 19 20 20 21 21 21 21 21 22 22 22 22 22 22 22 22
24 25 26 27 26 26 26 24 24 24 24 23 23 23 22 23 22 22 22 22 21 21 20 20 20 20 21 21 21 21 21 22 22 22 22 22 22 23 22 22 23 24 24 24
25 25 25 26 27 27 26 25 25 26 25 24 25 25 24 24 23 23 23 22 22 22 21 21 20 21 22 22 22 22 22 22 23 22 22 22 23 24 24 24 25 26 27 26
26 26 25 24 25 27 27 25 25 26 25 25 25 25 25 25 24 24 23 22 23 23 23 22 22 21 22 22 23 24 23 24 23 22 23 24 24 24 25 26 26 28 28 28
26 26 26 25 26 27 25 25 25 25 25 24 24 25 26 25 24 24 24 23 23 23 23 23 23 23 23 23 24 24 23 23 24 24 25 25 25 25 26 27 28 29 29 28
25 25 25 25 25 26 25 26 25 25 26 26 26 26 25 25 24 24 24 24 24 23 24 24 23 23 23 23 24 24 24 24 25 26 26 26 27 27 27 27 28 28 28 29
25 25 25 26 25 24 25 24 24 24 25 24 24 24 24 24 23 23 23 23 23 23 23 22 22 23 23 23 23 24 25 25 26 26 26 27 28 28 28 28 29 28 28 29
26 26 26 26 25 25 26 25 24 23 24 24 23 23 23 23 23 23 23 23 23 23 23 23 23 24 24 23 24 25 25 25 26 26 26 27 27 28 28 28 29 28 29 30
26 26 27 26 25 26 26 25 24 24 24 24 23 23 23 23 23 22 22 22 23 23 23 24 24 24 24 24 25 25 25 26 26 26 26 26 27 28 28 28 28 29 30 30
28 27 26 26 27 27 27 26 26 26 25 25 24 23 24 24 24 23 23 23 23 24 24 25 25 25 24 25 25 26 26 26 26 27 27 27 28 28 29 29 29 30 30 30
28 27 27 28 28 28 27 27 27 27 27 27 26 26 26 26 25 24 24 25 25 25 25 25 26 26 26 26 26 26 26 27 27 27 28 28 29 29 29 30 30 30 31 31
27 28 28 28 28 28 28 28 27 27 27 27 26 26 26 26 26 27 26 26 26 26 27 27 27 27 27 27 26 27 27 28 28 28 28 29 29 30 30 30 31 31 31 31
27 28 28 28 29 30 29 28 27 27 27 28 28 27 27 27 27 26 26 26 26 27 27 27 27 27 27 27 27 27 28 28 28 28 28 28 29 30 30 30 31 31 31 30
Wind_Direction
235 233 231 235 237 239 243 249 260 271 274 275 279 282 289 291 308 326 331 334 339 337 338 346 347 338 327 317 311 308 298 286 280 281 276 273 264 268 275 279 279 277 277 279
235 236 237 239 243 248 253 256 262 267 269 268 268 273 279 279 288 298 309 319 324 324 323 322 331 327 314 312 308 302 293 288 282 279 274 272 268 272 279 282 284 287 286 282
236 237 240 241 244 249 255 256 258 263 264 268 270 273 274 277 284 289 291 299 307 313 311 311 314 318 314 305 301 298 294 289 286 282 277 272 270 276 282 285 288 291 292 289
239 240 243 244 246 251 254 255 256 262 264 265 268 272 276 273 279 286 289 292 296 303 306 306 307 303 302 301 301 300 296 290 290 285 281 278 275 277 281 285 289 291 293 291
240 241 244 246 248 252 253 254 256 261 266 265 267 269 273 276 277 282 287 290 293 293 298 300 300 296 292 294 299 304 301 296 291 287 285 281 282 279 285 290 293 294 295 293
240 241 242 246 249 251 254 258 261 265 267 263 265 267 269 272 277 278 282 285 291 294 295 296 296 294 295 295 298 300 301 299 294 290 285 284 286 286 287 290 293 295 297 298
243 244 245 247 249 252 254 258 263 263 263 264 268 267 268 269 273 278 279 280 285 291 292 294 295 293 294 297 297 294 296 296 295 291 288 286 287 289 290 290 291 293 294 296
244 245 246 247 249 251 255 255 253 255 260 265 269 267 270 271 272 275 279 282 283 287 285 289 291 290 289 292 292 290 289 289 290 290 288 289 289 288 289 288 289 290 292 296
242 244 246 247 249 250 252 254 254 257 259 261 262 267 273 273 272 274 277 281 283 285 286 286 286 287 288 288 290 286 284 283 284 287 289 289 289 292 291 291 290 290 293 297
241 243 245 247 248 249 251 252 254 253 255 260 265 269 271 271 274 275 276 279 280 284 286 286 285 287 288 289 286 283 283 281 280 283 288 290 289 291 294 292 289 289 292 294
240 245 247 247 248 250 253 252 253 254 254 257 262 267 267 269 272 274 275 275 278 282 281 283 284 282 284 285 283 280 280 281 281 284 287 288 290 292 294 292 289 290 292 292
242 243 245 250 250 250 252 252 253 254 257 256 260 265 265 267 270 271 272 273 276 276 278 281 281 280 281 283 280 280 280 282 284 285 287 288 289 291 292 291 290 291 291 290
243 243 246 251 254 254 253 251 252 254 257 258 258 264 268 268 268 269 270 272 275 276 277 278 279 278 278 280 280 280 280 281 284 285 287 288 287 289 289 288 288 290 291 291
244 245 244 245 248 253 256 255 254 254 256 258 260 262 267 269 269 268 269 272 274 274 275 275 276 278 277 276 279 279 280 281 282 284 287 288 287 287 287 288 288 287 289 290
247 248 250 249 250 254 256 256 256 256 256 258 261 263 265 266 268 267 267 269 270 271 271 271 274 276 276 275 276 277 278 280 281 282 284 287 286 288 288 288 288 286 287 289
247 250 254 254 251 254 256 256 257 257 259 262 263 266 265 265 265 266 266 266 265 267 269 271 275 277 276 276 276 276 277 280 283 286 286 287 288 287 288 288 288 287 288 289
247 251 253 256 255 255 258 258 260 262 261 262 263 265 267 268 265 264 265 265 263 265 267 270 274 277 275 275 274 275 280 282 283 284 285 286 287 287 288 289 289 288 289 291
249 251 254 256 257 257 258 258 260 262 263 263 261 261 262 262 262 261 261 262 263 265 267 270 274 275 277 277 277 279 282 282 282 284 285 285 286 288 287 288 290 292 291 291
250 252 255 257 259 262 259 258 259 260 260 262 260 260 259 261 261 260 260 260 262 266 270 272 274 276 277 279 279 280 282 283 284 285 286 288 288 288 289 290 291 292 291 292
250 252 255 256 257 260 260 259 260 263 261 260 259 258 258 261 263 261 259 260 263 266 271 273 275 276 277 278 279 281 284 285 286 286 287 289 291 292 291 292 293 291 291 293
250 251 253 255 257 260 261 262 264 263 259 260 259 258 260 261 260 260 262 262 263 266 270 274 276 278 280 281 282 285 287 287 288 288 288 289 290 291 292 292 291 292 293 295
250 252 254 254 256 259 261 263 262 262 260 260 260 259 261 262 262 262 264 266 266 268 271 273 275 277 279 281 282 284 286 287 288 289 289 289 290 292 293 293 293 295 295 295
248 249 251 252 254 257 261 262 262 260 259 259 259 258 259 259 260 263 266 266 265 267 270 273 273 275 277 279 281 284 286 287 288 288 289 290 291 292 291 291 294 295 294 295
249 249 251 252 254 256 258 260 260 260 259 258 258 258 258 259 262 264 264 266 267 268 271 273 273 275 277 278 279 282 284 284 286 287 288 290 291 291 291 291 292 292 293 295
249 250 252 253 254 255 257 258 259 259 258 258 258 259 260 261 261 261 262 264 267 269 271 272 273 275 278 277 279 282 284 285 285 286 288 290 291 292 292 291 291 291 293 295
248 250 252 253 252 254 255 257 259 259 259 257 257 258 260 261 262 264 265 267 268 269 271 273 272 274 277 279 281 282 283 284 285 286 287 289 291 291 292 291 292 293 295 295
Height
5909 5912 5913 5913 5914 5915 5915 5915 5916 5916 5915 5915 5914 5914 5913 5912 5911 5910 5908 5907 5906 5904 5903 5901 5900 5898 5897 5896 5894 5893 5892 5891 5891 5890 5890 5890 5889 5889 5888 5888 5887 5886 5885 5885
5907 5909 5910 5910 5911 5912 5912 5913 5914 5914 5913 5913 5913 5913 5912 5911 5910 5909 5908 5906 5905 5903 5902 5900 5899 5897 5896 5894 5893 5892 5891 5890 5889 5889 5888 5888 5888 5887 5887 5886 5885 5884 5883 5882
5904 5907 5906 5907 5908 5909 5910 5911 5911 5911 5910 5910 5911 5911 5910 5910 5908 5907 5906 5905 5903 5902 5901 5899 5898 5896 5894 5893 5892 5891 5890 5889 5888 5887 5887 5886 5886 5885 5884 5884 5883 5882 5881 5880
5900 5902 5903 5904 5905 5906 5907 5907 5907 5907 5908 5908 5909 5910 5909 5908 5907 5905 5904 5903 5902 5901 5900 5898 5896 5895 5893 5892 5891 5890 5888 5887 5886 5885 5884 5884 5883 5883 5882 5881 5880 5880 5879 5877
5896 5898 5898 5900 5902 5902 5903 5904 5904 5904 5905 5906 5906 5907 5908 5905 5904 5904 5902 5901 5900 5899 5898 5896 5895 5893 5891 5890 5889 5888 5886 5885 5884 5883 5882 5881 5881 5880 5879 5879 5878 5877 5876 5874
5891 5893 5894 5896 5897 5898 5899 5900 5901 5901 5902 5903 5903 5903 5904 5903 5902 5901 5900 5899 5898 5897 5896 5894 5893 5891 5889 5888 5887 5886 5884 5883 5882 5881 5880 5879 5878 5878 5877 5876 5875 5874 5872 5871
5887 5888 5889 5891 5892 5894 5895 5897 5899 5899 5899 5899 5899 5899 5900 5899 5898 5897 5896 5896 5895 5894 5893 5891 5890 5889 5887 5886 5885 5883 5882 5881 5880 5879 5878 5877 5876 5875 5874 5873 5871 5870 5869 5868
5882 5884 5885 5886 5888 5889 5890 5893 5895 5896 5897 5897 5895 5894 5895 5895 5894 5893 5893 5892 5891 5890 5889 5888 5887 5886 5885 5883 5882 5881 5880 5879 5878 5876 5876 5875 5874 5872 5871 5869 5868 5867 5865 5864
5877 5880 5880 5881 5883 5884 5886 5887 5889 5890 5890 5891 5891 5890 5890 5890 5889 5889 5889 5888 5887 5886 5885 5884 5883 5883 5882 5880 5879 5878 5877 5875 5874 5873 5873 5872 5870 5869 5867 5865 5864 5863 5861 5859
5871 5873 5875 5876 5877 5879 5881 5882 5884 5885 5885 5886 5887 5886 5887 5885 5885 5885 5884 5884 5883 5882 5881 5880 5880 5879 5878 5877 5876 5874 5873 5872 5871 5870 5869 5868 5866 5865 5863 5861 5860 5858 5857 5855
5865 5868 5869 5870 5872 5874 5875 5876 5877 5879 5879 5881 5882 5884 5882 5880 5880 5880 5880 5879 5879 5878 5877 5876 5875 5874 5874 5873 5871 5870 5869 5868 5867 5866 5865 5863 5862 5860 5859 5857 5855 5854 5852 5850
5859 5862 5864 5865 5866 5867 5868 5870 5872 5873 5873 5874 5875 5879 5875 5875 5874 5875 5875 5874 5874 5873 5872 5872 5871 5870 5869 5868 5867 5866 5865 5864 5862 5861 5860 5859 5857 5856 5854 5852 5850 5848 5847 5845
5853 5856 5858 5860 5862 5862 5862 5864 5865 5867 5868 5868 5869 5873 5869 5869 5869 5869 5869 5869 5869 5868 5868 5867 5866 5865 5864 5863 5862 5861 5860 5859 5857 5856 5855 5853 5852 5850 5848 5846 5845 5843 5841 5839
5847 5849 5853 5856 5856 5856 5856 5857 5858 5860 5861 5862 5863 5865 5864 5863 5863 5863 5863 5863 5863 5862 5862 5862 5861 5860 5859 5858 5857 5856 5855 5854 5852 5851 5849 5848 5846 5844 5843 5841 5839 5837 5835 5833
5840 5843 5844 5846 5847 5848 5849 5850 5852 5853 5854 5856 5857 5857 5857 5857 5857 5857 5857 5857 5857 5857 5856 5856 5855 5855 5854 5853 5852 5851 5850 5848 5846 5845 5843 5842 5840 5839 5837 5835 5833 5831 5829 5827
5834 5836 5837 5839 5840 5841 5842 5843 5845 5846 5847 5848 5849 5850 5850 5849 5850 5850 5851 5851 5850 5850 5850 5850 5849 5849 5848 5847 5846 5845 5843 5842 5840 5839 5837 5836 5834 5833 5831 5829 5827 5825 5822 5820
5827 5829 5831 5832 5833 5833 5835 5837 5838 5839 5840 5841 5842 5843 5842 5842 5843 5843 5844 5844 5844 5844 5844 5844 5844 5843 5842 5841 5840 5839 5837 5836 5835 5833 5831 5830 5828 5826 5824 5822 5820 5818 5816 5813
5821 5822 5824 5825 5826 5827 5831 5830 5830 5831 5832 5833 5834 5835 5835 5835 5836 5836 5837 5837 5838 5838 5838 5838 5837 5836 5835 5834 5833 5832 5831 5830 5828 5827 5825 5823 5821 5820 5818 5815 5813 5811 5809 5806
5814 5816 5817 5819 5819 5820 5822 5822 5823 5824 5824 5825 5826 5827 5828 5828 5829 5830 5830 5830 5831 5831 5831 5831 5830 5830 5829 5828 5827 5826 5824 5823 5822 5820 5818 5816 5814 5812 5810 5807 5805 5803 5801 5798
5807 5808 5811 5812 5813 5814 5816 5815 5815 5817 5817 5818 5819 5820 5821 5822 5823 5823 5823 5823 5824 5824 5824 5824 5823 5823 5822 5822 5821 5820 5818 5817 5815 5813 5811 5809 5807 5805 5803 5800 5798 5796 5793 5790
5800 5801 5802 5804 5805 5807 5807 5807 5809 5811 5811 5810 5812 5813 5814 5815 5816 5816 5816 5816 5817 5817 5817 5817 5816 5816 5816 5815 5814 5813 5811 5810 5808 5806 5804 5803 5801 5798 5796 5793 5791 5788 5785 5783
5792 5794 5795 5797 5798 5801 5798 5800 5802 5802 5802 5803 5805 5806 5807 5808 5808 5809 5809 5810 5810 5810 5810 5810 5810 5809 5809 5808 5807 5806 5805 5803 5801 5799 5797 5795 5793 5791 5788 5785 5783 5780 5777 5774
5784 5786 5787 5789 5791 5791 5791 5792 5793 5794 5795 5796 5797 5798 5800 5801 5801 5802 5803 5803 5803 5803 5804 5803 5803 5802 5802 5801 5800 5799 5797 5795 5794 5792 5790 5788 5786 5783 5780 5778 5775 5772 5769 5766
5776 5777 5778 5780 5781 5782 5783 5784 5785 5786 5787 5788 5789 5791 5792 5793 5794 5795 5796 5796 5796 5796 5796 5796 5796 5795 5794 5794 5793 5791 5790 5788 5786 5785 5783 5780 5778 5775 5772 5770 5767 5764 5761 5758
5767 5769 5770 5771 5772 5773 5774 5776 5777 5778 5779 5781 5782 5783 5784 5786 5786 5787 5788 5788 5789 5789 5789 5789 5788 5788 5787 5786 5785 5784 5782 5780 5779 5777 5774 5772 5770 5767 5765 5762 5759 5756 5753 5750
5759 5760 5761 5762 5763 5765 5766 5767 5769 5770 5771 5772 5774 5775 5776 5778 5778 5779 5780 5780 5781 5781 5781 5781 5780 5780 5779 5778 5777 5776 5774 5772 5770 5768 5766 5764 5762 5759 5756 5753 5751 5747 5745 5742